Time,TemperatureF,DewpointF,PressureIn,WindDirection,WindDirectionDegrees,WindSpeedMPH,WindSpeedGustMPH,Humidity,HourlyPrecipIn,Conditions,Clouds,dailyrainin,SoftwareType,DateUTC
2013-02-15 00:10:00,62.8,62.0,29.99,East,80,1.0,-999.0,96,-99.99,,,0.00,weatherlink.com 1.10,2013-02-15 05:10:00,
2013-02-15 00:25:00,62.9,62.0,29.98,NNE,14,0.0,-999.0,96,-99.99,,,0.00,weatherlink.com 1.10,2013-02-15 05:25:00,
2013-02-15 00:40:00,63.0,62.0,29.98,ENE,64,0.0,-999.0,96,-99.99,,,0.00,weatherlink.com 1.10,2013-02-15 05:40:00,
2013-02-15 00:55:00,63.0,62.0,29.97,NW,318,1.0,-999.0,96,-99.99,,,0.00,weatherlink.com 1.10,2013-02-15 05:55:00,
2013-02-15 01:10:00,63.3,62.0,29.97,North,11,0.0,-999.0,96,-99.99,,,0.01,weatherlink.com 1.10,2013-02-15 06:10:00,
2013-02-15 01:25:00,63.4,62.0,29.96,NNW,338,0.0,-999.0,96,-99.99,,,0.01,weatherlink.com 1.10,2013-02-15 06:25:00,
2013-02-15 01:40:00,63.5,62.0,29.96,NNW,328,0.0,-999.0,96,-99.99,,,0.01,weatherlink.com 1.10,2013-02-15 06:40:00,
2013-02-15 01:55:00,63.6,63.0,29.95,ENE,59,0.0,-999.0,96,-99.99,,,0.01,weatherlink.com 1.10,2013-02-15 06:55:00,
2013-02-15 02:10:00,63.7,63.0,29.96,North,355,0.0,-999.0,96,-99.99,,,0.01,weatherlink.com 1.10,2013-02-15 07:10:00,
2013-02-15 02:25:00,63.9,63.0,29.95,North,355,0.0,-999.0,96,-99.99,,,0.02,weatherlink.com 1.10,2013-02-15 07:25:00,
2013-02-15 02:40:00,64.1,63.0,29.95,North,355,0.0,-999.0,96,-99.99,,,0.02,weatherlink.com 1.10,2013-02-15 07:40:00,
2013-02-15 02:55:00,64.5,64.0,29.95,SE,126,0.0,-999.0,97,-99.99,,,0.03,weatherlink.com 1.10,2013-02-15 07:55:00,
2013-02-15 03:10:00,65.0,64.0,29.95,North,5,0.0,-999.0,97,-99.99,,,0.03,weatherlink.com 1.10,2013-02-15 08:10:00,
2013-02-15 03:25:00,65.3,65.0,29.95,NW,313,1.0,-999.0,97,-99.99,,,0.04,weatherlink.com 1.10,2013-02-15 08:25:00,
2013-02-15 03:40:00,65.6,65.0,29.94,ENE,58,0.0,-999.0,97,-99.99,,,0.04,weatherlink.com 1.10,2013-02-15 08:40:00,
2013-02-15 03:55:00,65.8,65.0,29.95,NE,52,1.0,-999.0,97,-99.99,,,0.04,weatherlink.com 1.10,2013-02-15 08:55:00,
2013-02-15 04:10:00,65.8,65.0,29.94,ENE,74,0.0,-999.0,97,-99.99,,,0.04,weatherlink.com 1.10,2013-02-15 09:10:00,
2013-02-15 04:25:00,65.8,65.0,29.94,NE,49,0.0,-999.0,97,-99.99,,,0.05,weatherlink.com 1.10,2013-02-15 09:25:00,
2013-02-15 04:40:00,66.0,65.0,29.95,NE,39,0.0,-999.0,97,-99.99,,,0.05,weatherlink.com 1.10,2013-02-15 09:40:00,
2013-02-15 04:55:00,66.0,65.0,29.96,North,11,0.0,-999.0,96,-99.99,,,0.05,weatherlink.com 1.10,2013-02-15 09:55:00,
2013-02-15 05:10:00,66.1,65.0,29.96,NE,53,0.0,-999.0,97,-99.99,,,0.07,weatherlink.com 1.10,2013-02-15 10:10:00,
2013-02-15 05:25:00,65.9,65.0,29.96,East,84,0.0,-999.0,96,-99.99,,,0.08,weatherlink.com 1.10,2013-02-15 10:25:00,
2013-02-15 05:40:00,65.9,65.0,29.97,NNW,330,1.0,-999.0,97,-99.99,,,0.08,weatherlink.com 1.10,2013-02-15 10:40:00,
2013-02-15 05:55:00,65.8,65.0,29.97,NE,46,0.0,-999.0,96,-99.99,,,0.09,weatherlink.com 1.10,2013-02-15 10:55:00,
2013-02-15 06:10:00,65.6,65.0,29.96,ESE,106,0.0,-999.0,96,-99.99,,,0.09,weatherlink.com 1.10,2013-02-15 11:10:00,
2013-02-15 06:25:00,65.3,64.0,29.96,ENE,66,0.0,-999.0,96,-99.99,,,0.09,weatherlink.com 1.10,2013-02-15 11:25:00,
2013-02-15 06:40:00,65.3,64.0,29.97,ENE,62,0.0,-999.0,96,-99.99,,,0.09,weatherlink.com 1.10,2013-02-15 11:40:00,
2013-02-15 06:55:00,65.4,64.0,29.98,North,5,0.0,-999.0,96,-99.99,,,0.09,weatherlink.com 1.10,2013-02-15 11:55:00,
2013-02-15 07:10:00,65.6,65.0,29.98,ENE,59,1.0,-999.0,96,-99.99,,,0.09,weatherlink.com 1.10,2013-02-15 12:10:00,
2013-02-15 07:25:00,66.0,65.0,29.99,ENE,69,0.0,-999.0,97,-99.99,,,0.09,weatherlink.com 1.10,2013-02-15 12:25:00,
2013-02-15 07:40:00,66.3,65.0,29.98,East,80,1.0,-999.0,96,-99.99,,,0.10,weatherlink.com 1.10,2013-02-15 12:40:00,
2013-02-15 07:55:00,66.5,65.0,29.99,ENE,69,2.0,-999.0,96,-99.99,,,0.10,weatherlink.com 1.10,2013-02-15 12:55:00,
2013-02-15 08:10:00,66.5,65.0,29.99,ENE,78,3.0,-999.0,96,-99.99,,,0.10,weatherlink.com 1.10,2013-02-15 13:10:00,
2013-02-15 08:25:00,66.6,65.0,29.99,ENE,60,2.0,-999.0,95,-99.99,,,0.10,weatherlink.com 1.10,2013-02-15 13:25:00,
2013-02-15 08:40:00,66.9,66.0,30.00,SE,126,4.0,-999.0,95,-99.99,,,0.10,weatherlink.com 1.10,2013-02-15 13:40:00,
2013-02-15 08:55:00,67.1,66.0,29.99,ENE,72,2.0,-999.0,95,-99.99,,,0.10,weatherlink.com 1.10,2013-02-15 13:55:00,
2013-02-15 09:10:00,67.3,66.0,29.98,SE,128,2.0,-999.0,95,-99.99,,,0.12,weatherlink.com 1.10,2013-02-15 14:10:00,
2013-02-15 09:25:00,67.6,66.0,29.99,ESE,117,4.0,-999.0,95,-99.99,,,0.12,weatherlink.com 1.10,2013-02-15 14:25:00,
2013-02-15 09:40:00,68.2,67.0,29.99,ESE,109,0.0,-999.0,95,-99.99,,,0.13,weatherlink.com 1.10,2013-02-15 14:40:00,
2013-02-15 09:55:00,69.3,67.0,30.00,ENE,59,3.0,-999.0,93,-99.99,,,0.13,weatherlink.com 1.10,2013-02-15 14:55:00,
2013-02-15 10:11:00,70.0,67.0,30.00,ESE,117,2.0,-999.0,91,-99.99,,,0.13,weatherlink.com 1.10,2013-02-15 15:11:00,
2013-02-15 10:26:00,71.3,68.0,30.01,NE,44,0.0,-999.0,90,-99.99,,,0.13,weatherlink.com 1.10,2013-02-15 15:26:00,
2013-02-15 10:41:00,71.1,67.0,30.01,NNE,30,0.0,-999.0,88,-99.99,,,0.13,weatherlink.com 1.10,2013-02-15 15:41:00,
2013-02-15 10:56:00,71.1,67.0,30.01,NW,317,1.0,-999.0,86,-99.99,,,0.13,weatherlink.com 1.10,2013-02-15 15:56:00,
2013-02-15 11:11:00,71.0,66.0,30.01,NNW,338,1.0,-999.0,85,-99.99,,,0.13,weatherlink.com 1.10,2013-02-15 16:11:00,
2013-02-15 11:26:00,71.1,66.0,30.00,NE,40,0.0,-999.0,83,-99.99,,,0.13,weatherlink.com 1.10,2013-02-15 16:26:00,
2013-02-15 11:41:00,71.5,66.0,30.00,ENE,59,3.0,-999.0,82,-99.99,,,0.13,weatherlink.com 1.10,2013-02-15 16:41:00,
2013-02-15 11:56:00,71.4,66.0,30.00,NW,326,2.0,-999.0,83,-99.99,,,0.13,weatherlink.com 1.10,2013-02-15 16:56:00,
2013-02-15 12:11:00,71.1,66.0,30.00,NW,307,2.0,-999.0,85,-99.99,,,0.13,weatherlink.com 1.10,2013-02-15 17:11:00,
2013-02-15 12:26:00,71.2,67.0,29.99,NW,311,3.0,-999.0,86,-99.99,,,0.13,weatherlink.com 1.10,2013-02-15 17:26:00,
2013-02-15 12:41:00,70.2,66.0,29.99,WNW,303,4.0,-999.0,85,-99.99,,,0.13,weatherlink.com 1.10,2013-02-15 17:41:00,
2013-02-15 12:56:00,68.6,65.0,29.98,WNW,287,3.0,-999.0,87,-99.99,,,0.13,weatherlink.com 1.10,2013-02-15 17:56:00,
2013-02-15 13:11:00,68.4,65.0,29.98,NNW,337,3.0,-999.0,89,-99.99,,,0.13,weatherlink.com 1.10,2013-02-15 18:11:00,
2013-02-15 13:26:00,68.3,66.0,29.97,NW,322,3.0,-999.0,92,-99.99,,,0.14,weatherlink.com 1.10,2013-02-15 18:26:00,
2013-02-15 13:41:00,68.1,66.0,29.97,NW,320,2.0,-999.0,92,-99.99,,,0.14,weatherlink.com 1.10,2013-02-15 18:41:00,
2013-02-15 13:56:00,67.8,65.0,29.96,NNW,329,3.0,-999.0,91,-99.99,,,0.15,weatherlink.com 1.10,2013-02-15 18:56:00,
2013-02-15 14:11:00,67.6,65.0,29.96,NW,317,2.0,-999.0,92,-99.99,,,0.16,weatherlink.com 1.10,2013-02-15 19:11:00,
2013-02-15 14:26:00,67.4,65.0,29.95,WNW,293,3.0,-999.0,92,-99.99,,,0.17,weatherlink.com 1.10,2013-02-15 19:26:00,
2013-02-15 14:41:00,67.2,65.0,29.95,NW,309,0.0,-999.0,93,-99.99,,,0.18,weatherlink.com 1.10,2013-02-15 19:41:00,
2013-02-15 14:56:00,66.6,64.0,29.95,NNW,330,0.0,-999.0,92,-99.99,,,0.20,weatherlink.com 1.10,2013-02-15 19:56:00,
2013-02-15 15:11:00,66.3,64.0,29.95,NW,313,0.0,-999.0,92,-99.99,,,0.21,weatherlink.com 1.10,2013-02-15 20:11:00,
2013-02-15 15:26:00,66.0,64.0,29.95,NNW,336,0.0,-999.0,92,-99.99,,,0.22,weatherlink.com 1.10,2013-02-15 20:26:00,
2013-02-15 15:41:00,66.1,64.0,29.95,NW,321,1.0,-999.0,93,-99.99,,,0.23,weatherlink.com 1.10,2013-02-15 20:41:00,
2013-02-15 15:56:00,66.1,64.0,29.95,WNW,295,0.0,-999.0,93,-99.99,,,0.23,weatherlink.com 1.10,2013-02-15 20:56:00,
2013-02-15 16:11:00,66.3,65.0,29.95,WNW,300,0.0,-999.0,94,-99.99,,,0.24,weatherlink.com 1.10,2013-02-15 21:11:00,
2013-02-15 16:26:00,66.0,64.0,29.95,West,271,0.0,-999.0,94,-99.99,,,0.25,weatherlink.com 1.10,2013-02-15 21:26:00,
2013-02-15 16:41:00,65.5,64.0,29.95,NW,317,0.0,-999.0,94,-99.99,,,0.27,weatherlink.com 1.10,2013-02-15 21:41:00,
2013-02-15 16:56:00,65.0,63.0,29.95,NW,309,0.0,-999.0,94,-99.99,,,0.28,weatherlink.com 1.10,2013-02-15 21:56:00,
2013-02-15 17:11:00,65.1,63.0,29.96,WNW,288,0.0,-999.0,94,-99.99,,,0.29,weatherlink.com 1.10,2013-02-15 22:11:00,
2013-02-15 17:26:00,65.3,64.0,29.95,WNW,295,0.0,-999.0,95,-99.99,,,0.29,weatherlink.com 1.10,2013-02-15 22:26:00,
2013-02-15 17:41:00,65.4,64.0,29.95,WNW,295,0.0,-999.0,95,-99.99,,,0.29,weatherlink.com 1.10,2013-02-15 22:41:00,
2013-02-15 17:56:00,65.6,64.0,29.95,WNW,295,0.0,-999.0,95,-99.99,,,0.30,weatherlink.com 1.10,2013-02-15 22:56:00,
2013-02-15 18:11:00,65.5,64.0,29.95,WNW,295,0.0,-999.0,95,-99.99,,,0.30,weatherlink.com 1.10,2013-02-15 23:11:00,
2013-02-15 18:26:00,65.6,65.0,29.95,NW,313,0.0,-999.0,96,-99.99,,,0.30,weatherlink.com 1.10,2013-02-15 23:26:00,
2013-02-15 18:41:00,65.2,64.0,29.93,NNE,31,0.0,-999.0,95,-99.99,,,0.30,weatherlink.com 1.10,2013-02-15 23:41:00,
2013-02-15 18:56:00,65.0,64.0,29.94,NNE,14,0.0,-999.0,96,-99.99,,,0.30,weatherlink.com 1.10,2013-02-15 23:56:00,
2013-02-15 19:11:00,64.9,64.0,29.93,ENE,71,0.0,-999.0,96,-99.99,,,0.30,weatherlink.com 1.10,2013-02-16 00:11:00,
2013-02-15 19:26:00,65.0,64.0,29.93,NNW,331,0.0,-999.0,96,-99.99,,,0.30,weatherlink.com 1.10,2013-02-16 00:26:00,
2013-02-15 19:41:00,64.9,64.0,29.93,NE,43,0.0,-999.0,96,-99.99,,,0.30,weatherlink.com 1.10,2013-02-16 00:41:00,
2013-02-15 19:56:00,64.9,64.0,29.92,ESE,113,0.0,-999.0,96,-99.99,,,0.30,weatherlink.com 1.10,2013-02-16 00:56:00,
2013-02-15 20:11:00,64.9,64.0,29.94,ESE,113,0.0,-999.0,96,-99.99,,,0.30,weatherlink.com 1.10,2013-02-16 01:11:00,
2013-02-15 20:26:00,64.8,64.0,29.95,ESE,113,0.0,-999.0,96,-99.99,,,0.30,weatherlink.com 1.10,2013-02-16 01:26:00,
2013-02-15 20:41:00,64.9,64.0,29.95,ESE,111,0.0,-999.0,96,-99.99,,,0.30,weatherlink.com 1.10,2013-02-16 01:41:00,
2013-02-15 20:56:00,64.9,64.0,29.95,ESE,111,0.0,-999.0,96,-99.99,,,0.30,weatherlink.com 1.10,2013-02-16 01:56:00,
2013-02-15 21:11:00,64.9,64.0,29.96,ESE,111,0.0,-999.0,96,-99.99,,,0.30,weatherlink.com 1.10,2013-02-16 02:11:00,
2013-02-15 21:26:00,64.8,64.0,29.96,ESE,111,0.0,-999.0,96,-99.99,,,0.30,weatherlink.com 1.10,2013-02-16 02:26:00,
2013-02-15 21:41:00,64.7,64.0,29.95,ESE,111,0.0,-999.0,96,-99.99,,,0.30,weatherlink.com 1.10,2013-02-16 02:41:00,
2013-02-15 21:56:00,64.7,64.0,29.95,NNW,341,0.0,-999.0,96,-99.99,,,0.30,weatherlink.com 1.10,2013-02-16 02:56:00,
2013-02-15 22:11:00,64.6,64.0,29.95,NNW,333,0.0,-999.0,96,-99.99,,,0.30,weatherlink.com 1.10,2013-02-16 03:11:00,
2013-02-15 22:26:00,64.5,64.0,29.95,NW,323,1.0,-999.0,97,-99.99,,,0.30,weatherlink.com 1.10,2013-02-16 03:26:00,
2013-02-15 22:41:00,64.4,64.0,29.95,NW,318,0.0,-999.0,97,-99.99,,,0.30,weatherlink.com 1.10,2013-02-16 03:41:00,
2013-02-15 22:56:00,64.2,63.0,29.94,NW,313,0.0,-999.0,97,-99.99,,,0.30,weatherlink.com 1.10,2013-02-16 03:56:00,
2013-02-15 23:11:00,64.1,63.0,29.94,NW,320,1.0,-999.0,97,-99.99,,,0.31,weatherlink.com 1.10,2013-02-16 04:11:00,
2013-02-15 23:26:00,64.1,63.0,29.94,NW,317,0.0,-999.0,97,-99.99,,,0.31,weatherlink.com 1.10,2013-02-16 04:26:00,
2013-02-15 23:41:00,64.0,63.0,29.93,NW,317,0.0,-999.0,97,-99.99,,,0.31,weatherlink.com 1.10,2013-02-16 04:41:00,
2013-02-15 23:56:00,63.9,63.0,29.93,NW,317,0.0,-999.0,97,-99.99,,,0.31,weatherlink.com 1.10,2013-02-16 04:56:00,